{"data":{"norad_id":55150,"intl_designator":"2023-004L","name":"ONEWEB-0571","alt_names":[],"object_type":"PAYLOAD","status":"ACTIVE","operator":null,"country":"UK","launch_date":"2023-01-10","launch_site_code":"AFETR","launch_vehicle":null,"mission":null,"orbit_class":"UNKNOWN","rcs_meters":null,"size_class":null,"mass_kg":null,"dimensions":null,"purposes":["comms"],"wikipedia_slug":null,"has_3d_model":false,"image_url":null,"decayed_at":null,"tle_current":{"epoch":"2026-05-25T01:19:34.688640Z","epoch_age_seconds":73778,"freshness":"FRESH","line1":"1 55150U 23004L   26145.05526260  .00000028  00000+0  39338-4 0  9998","line2":"2 55150  87.9160 340.0733 0000987 128.3501 231.7720 13.18687477166651","mean_motion":13.18687477,"eccentricity":9.87e-5,"inclination_deg":87.916,"raan_deg":340.0733,"arg_perigee_deg":128.3501,"mean_anomaly_deg":231.772,"bstar":3.9338e-5,"rev_number":16665,"period_min":109.19949003201,"perigee_km":1188.9905267034,"apogee_km":1190.4844251249,"semimajor_km":7567.8744759142,"source":"CELESTRAK","updated_at":"2026-05-25T13:38:22.641409Z"}}}